Location: Unspecified
(47.5840°N, 122.3000°W)
Time: 19:01:12
(UTC+00:00)

USA 59 Rocket - Pass Details

Date: 16 March 2026
Orbit: 368 x 1667 km, 63.3° (Epoch: 14 April)

Event Time Altitude Azimuth Distance (km) Brightness Sun altitude
Exits shadow 13:00:30 - 316° (NW) 1,615 1.9 -14.1°
Reaches altitude 10° 13:00:35 10° 316° (NW) 1,580 1.9 -14.1°
Maximum altitude 13:04:00 74° 232° (SW) 555 -0.4 -13.5°
Drops below altitude 10° 13:08:33 10° 147° (SSE) 2,091 3.0 -12.8°
Sets 13:11:18 0° 146° (SE) 3,223 4.0 -12.3°
